Regional Weather Roundup
Issued by NWS State College, PA

Home | Current Version | Previous Version | Text Only | Print | Product List | Glossary Off
Versions: 1 2 3 4 5 6 7 8 9 10 11 12 13 14 15 16 17 18 19 20 21 22 23 24 25 26 27 28 29 30 31 32 33 34 35 36 37 38 39 40 41 42 43 44 45 46 47 48 49 50

000
ASUS41 KCTP 271403
RWRCTP

REGIONAL WEATHER ROUNDUP
NATIONAL WEATHER SERVICE STATE COLLEGE PA
1000 AM EDT FRI MAY 27 2016

Note: "fair" indicates few or no clouds below 12,000 feet with no
significant weather and/or obstructions to visibility.

* = STATION THAT DOES NOT REPORT PRECIPITATION /E.G. RAIN...SNOW...ETC/
    THUNDER OR FOG.

PAZ002>004-007>009-013>016-020>023-029>032-271500-
WESTERN PENNSYLVANIA

CITY           SKY/WX    TMP DP  RH WIND       PRES   REMARKS
ERIE           MOSUNNY   77  65  66 SW6       30.01F
MEADVILLE      SUNNY     71  64  78 S8        30.06S
FRANKLIN*      SUNNY     73  63  68 SW6       30.09S
NEW CASTLE     FAIR      73  65  75 VRB6      30.07S
BEAVER COUNTY  SUNNY     73  64  73 SW7       30.08S
BUTLER*        MOSUNNY   73  64  73 SW8       30.11S
PITTSBURGH INT PTSUNNY   76  62  62 SW9       30.07F
PITTSBURGH     SUNNY     75  63  66 W8        30.08S
INDIANA*       SUNNY     75  66  73 W10       30.12F
LATROBE        PTSUNNY   75  66  73 W14       30.10
WASHINGTON CO* SUNNY     75  64  69 S6        30.09F
$$

PAZ004>006-010>012-017>019-024>028-033>037-041-042-045-046-049>053-271500-
CENTRAL PENNSYLVANIA

CITY           SKY/WX    TMP DP  RH WIND       PRES   REMARKS
BRADFORD       SUNNY     73  61  65 SW8       30.09S
DUBOIS         MOSUNNY   71  62  73 SW10      30.09S
CLEARFIELD     SUNNY     72  64  76 SW9       30.09F
JOHNSTOWN      SUNNY     72  60  66 SW9       30.13R
ALTOONA        SUNNY     75  63  66 S7        30.11S
STATE COLLEGE  MOSUNNY   75  66  73 W6        30.09S
WILLIAMSPORT   SUNNY     75  63  66 CALM      30.05F
SELINSGROVE    SUNNY     79  65  62 VRB5      30.07S
FT INDIANTOWN  MOSUNNY   77  66  69 SW5       30.07S
CAPITAL CITY   SUNNY     81  67  62 SW6       30.07S
HARRISBURG     MOSUNNY   79  66  64 NW7       30.06S
YORK           SUNNY     79  67  66 VRB5      30.07F
$$

PAZ038>040-043-044-047-048-054-055-060>062-067>071-271500-
EASTERN PENNSYLVANIA

CITY           SKY/WX    TMP DP  RH WIND       PRES   REMARKS
SCRANTON       MOSUNNY   78  65  63 SW7       30.07S
MOUNT POCONO   SUNNY     71  62  73 W5        30.10F
ALLENTOWN      SUNNY     78  67  68 S5        30.06F
QUAKERTOWN*    SUNNY     79  66  65 CALM      30.08S
READING        SUNNY     81  66  60 NW6       30.05F
LANCASTER      SUNNY     79  67  66 W6        30.06F
COATESVILLE    SUNNY     77  66  69 CALM      30.09S
POTTSTOWN      SUNNY     78  66  66 CALM      30.08S
BLUE BELL      SUNNY     79  66  65 S3        30.06S
DOYLESTOWN     SUNNY     72  64  76 W5        30.06F
WILLOW GROVE   NOT AVBL
NORTH PHILA    SUNNY     80  66  62 SW6       30.08S
PHILADELPHIA   MOSUNNY   79  65  62 SW8       30.06F
$$




USA.gov is the U.S. government's official web portal to all federal, state and local government web resources and services.